Location: *
(49.3500°N, 12.6000°E)
Time: 12:02:30
(UTC+00:00)

Abrixas rocket - Pass Details

Date: 18 October 2019
Orbit: 359 x 368 km, 48.4° (Epoch: 12 November)

Event Time Altitude Azimuth Distance (km) Brightness Sun altitude
Rises 17:54:19 0° 230° (SW) 2,218 6.6 -17.0°
Reaches altitude 10° 17:56:28 10° 220° (SW) 1,370 5.3 -17.4°
Enters shadow 17:58:51 30° 172° (S) 704 3.2 -17.8°
